RH
8 6 5 5 6 9 14 16 24 51 74 80 83 86 88 91 91 99 99 92 95 94 100 90 82 69 57
8 7 6 6 6 6 7 10 13 14 20 30 73 84 85 88 90 97 99 98 93 100 99 100 86 75 70
11 12 11 11 8 8 7 7 7 10 16 17 26 60 83 83 92 92 100 98 98 94 98 99 100 89 80
14 13 13 16 14 10 7 6 5 5 6 11 17 26 54 77 86 95 97 100 100 93 98 100 100 100 94
11 11 12 15 19 15 12 7 6 9 9 6 4 4 8 16 43 79 92 96 100 100 95 98 99 100 100
12 11 12 13 14 14 9 8 8 14 8 6 7 5 4 5 15 32 76 95 99 99 99 95 98 99 100
19 16 15 16 14 10 8 9 9 10 10 8 11 9 7 7 13 23 28 69 94 100 100 97 100 99 100
25 21 18 17 15 14 10 8 9 8 18 12 9 10 13 11 6 13 34 73 95 98 99 100 99 98 100
31 30 30 29 26 23 19 18 8 7 13 55 25 10 7 6 12 16 30 51 96 95 100 99 100 98 98
40 40 40 38 36 37 23 18 25 20 42 22 18 25 10 7 19 18 12 16 39 83 99 99 100 100 95
60 55 51 42 48 33 27 24 27 19 14 25 15 24 96 63 6 8 21 18 23 54 97 99 100 100 99
81 61 54 51 48 39 34 36 26 18 11 15 14 42 96 100 86 16 44 36 40 35 86 98 100 100 100
77 56 76 78 66 60 50 40 26 24 13 30 49 40 36 82 93 72 74 50 78 64 69 98 100 99 99
87 100 98 85 75 76 86 77 45 27 20 26 12 17 15 56 96 70 87 86 84 87 94 98 100 100 99
96 96 93 95 96 89 98 77 72 43 19 19 15 45 63 58 48 34 42 61 85 84 89 98 99 100 100
93 93 94 95 90 97 91 87 80 37 20 32 26 18 13 23 32 35 95 100 99 92 86 99 98 93 96
96 97 99 98 100 100 90 91 73 36 24 68 57 97 81 42 17 48 100 100 100 99 100 100 99 94 96
Wind_Speed
19 20 18 21 21 20 19 20 21 24 27 27 28 28 27 26 28 28 25 26 28 28 29 26 26 25 24
18 20 20 20 21 20 22 22 23 24 25 26 27 29 27 26 26 29 30 26 27 29 27 28 27 25 25
20 20 22 23 24 24 23 22 23 24 24 25 27 31 27 25 25 27 30 29 26 28 26 27 28 28 26
21 22 22 22 25 28 31 31 29 27 24 24 24 25 28 29 27 27 26 27 24 24 27 28 29 30 28
21 23 24 26 28 30 32 34 36 30 29 30 31 29 27 25 26 28 27 26 23 22 28 28 32 31 29
20 22 23 24 27 29 33 36 39 30 41 43 36 32 31 28 25 25 26 26 23 22 24 31 31 33 31
22 22 23 24 27 30 31 33 35 36 38 41 42 42 32 30 27 26 26 25 25 24 21 26 33 32 32
21 22 23 24 26 28 30 33 35 35 34 40 37 41 41 33 31 26 24 19 20 24 25 21 30 31 33
25 24 24 25 25 27 27 29 34 35 33 26 31 41 46 46 30 25 25 21 20 20 20 21 26 29 33
26 27 27 27 26 23 24 27 28 32 17 32 38 36 41 44 33 33 32 30 28 20 19 19 23 27 28
29 31 29 29 28 25 27 27 29 31 31 30 39 37 26 37 48 49 39 30 30 26 20 19 23 26 25
33 34 33 32 31 31 29 29 28 33 34 30 34 31 31 37 40 47 44 39 32 28 24 21 22 26 30
38 37 34 33 34 34 34 32 31 28 29 27 27 30 32 36 41 42 44 42 35 26 23 25 27 28 30
35 31 34 36 35 32 29 30 31 34 28 30 30 28 31 31 34 42 41 38 38 31 28 30 31 31 32
35 38 39 32 31 27 31 32 31 35 38 35 30 26 29 33 40 41 40 37 35 31 31 33 35 32 32
33 33 34 33 32 32 36 33 37 39 39 37 35 34 33 33 30 31 24 28 31 29 28 31 35 32 31
33 34 34 35 32 34 37 38 43 42 38 34 31 24 32 41 37 23 22 24 26 27 26 29 31 29 30
Wind_Direction
331 336 339 334 331 326 316 311 301 293 288 291 295 297 298 297 294 296 294 279 271 271 272 279 285 289 293
331 334 335 336 334 333 327 324 315 310 307 298 293 296 294 298 297 292 291 289 281 270 272 273 277 282 288
326 331 334 336 334 332 330 328 327 328 317 307 298 292 299 301 300 299 292 286 283 276 269 269 275 279 282
324 326 330 332 329 327 326 330 328 329 323 331 321 311 299 293 296 296 300 294 281 275 263 265 270 276 280
317 320 326 327 327 327 326 326 325 327 325 322 319 320 316 309 295 290 292 293 298 281 265 262 263 269 276
310 313 317 318 319 319 322 325 327 322 321 321 324 323 323 318 306 297 288 291 294 287 272 262 262 262 268
302 306 307 310 310 312 314 316 315 318 320 315 322 321 319 319 322 309 301 291 290 298 291 272 261 260 261
292 294 294 299 302 306 309 309 308 312 317 313 314 313 315 318 318 312 298 291 286 288 290 285 266 263 261
292 293 294 297 300 302 306 307 307 308 319 311 315 310 308 315 323 314 301 292 298 305 295 281 272 267 267
287 290 296 299 299 297 300 298 300 306 287 305 308 317 315 305 305 298 302 301 291 290 304 297 276 264 266
285 289 293 294 291 292 294 288 287 285 296 302 301 305 304 302 300 303 313 308 300 293 296 303 292 278 267
281 287 288 289 287 291 291 285 284 286 293 294 292 298 300 298 297 300 304 306 306 298 287 300 290 282 270
279 284 282 283 288 288 287 287 286 286 288 287 286 292 290 287 288 294 298 302 302 304 283 298 292 280 271
280 274 274 280 286 286 289 284 290 292 287 290 292 293 289 285 287 289 290 288 295 297 291 292 289 281 274
263 267 274 280 276 285 273 285 287 291 299 296 294 289 280 284 285 285 289 287 286 290 287 287 288 279 274
273 271 274 272 278 271 276 286 284 295 299 296 299 298 293 285 279 289 287 285 283 285 285 288 287 280 276
267 270 269 270 268 268 277 277 286 296 297 288 296 292 292 292 293 288 289 275 278 285 289 290 293 290 286